Location: Cartersville (historical)
(42.9944°N, 93.0869°W)
Time: 15:24:54
(UTC+00:00)

Envisat - Visible Passes

Search period start: 07 October 2024 00:00
Search period end: 17 October 2024 00:00
Orbit: 762 x 764 km, 98.3° (Epoch: 07 October)

Date Brightness Start Highest point End Pass type
(mag) Time Alt. Az. Time Alt. Az. Time Alt. Az.
07 Oct 5.2 08:38:41 10° NNE 08:40:56 22° NE 08:40:56 22° NE visible
07 Oct 4.0 10:17:39 10° N 10:21:05 29° NW 10:21:05 29° NW visible
08 Oct 6.0 08:02:39 10° ENE 08:02:53 11° ENE 08:02:53 11° ENE visible
08 Oct 3.9 09:39:46 10° N 09:43:02 40° N 09:43:02 40° N visible
09 Oct 4.7 09:02:21 10° NNE 09:04:58 29° NE 09:04:58 29° NE visible
09 Oct 4.5 10:42:14 10° NNW 10:45:07 20° NW 10:45:07 20° NW visible
10 Oct 5.6 08:25:32 10° NE 08:26:55 16° NE 08:26:55 16° NE visible
10 Oct 4.0 10:03:58 10° N 10:07:04 32° NNW 10:07:04 32° NNW visible
11 Oct 4.3 09:26:16 10° NNE 09:29:00 33° NNE 09:29:00 33° NNE visible
11 Oct 4.8 11:07:24 10° NNW 11:09:09 13° NW 11:09:09 13° NW visible
12 Oct 5.2 08:49:01 10° NNE 08:50:57 22° NE 08:50:57 22° NE visible
12 Oct 4.4 10:28:24 10° N 10:31:05 23° NW 10:31:05 23° NW visible
13 Oct 6.0 08:12:32 10° NE 08:12:53 11° NE 08:12:53 11° NE visible
13 Oct 4.2 09:50:21 10° N 09:53:01 30° N 09:53:01 30° N visible
14 Oct 4.8 09:12:47 10° NNE 09:14:57 26° NNE 09:14:57 26° NNE visible
14 Oct 4.7 10:53:09 10° NNW 10:55:05 15° NW 10:55:05 15° NW visible
15 Oct 5.6 08:35:45 10° NE 08:36:53 16° NE 08:36:53 16° NE visible
15 Oct 4.4 10:14:37 10° N 10:17:01 24° NNW 10:17:01 24° NNW visible
16 Oct 4.6 09:36:45 10° N 09:38:57 26° N 09:38:57 26° N visible
